JST707 YMML-YMHB

Flight info

Callsign JST707
Flight time 1h 0m
Altitude 37000
Route SUNTI H169 IRSOM V33 MORGO
Aircraft A320/M-SDE3FGHIRWYZ/LB1

Departure

Time 2026-04-24 05:12
Airport Melbourne Airport (YMML)

Arrival

Time 2026-04-24 06:12
Airport Hobart International Airport (YMHB)
Time Latitude Longitude Altitude Speed Heading
2026-04-24 03:53 -37.67530 144.84791 380 ft 0 kts 171°
2026-04-24 04:58 -37.67516 144.84788 380 ft 4 kts 171°
2026-04-24 04:58 -37.67489 144.84783 380 ft 4 kts 174°
2026-04-24 04:59 -37.67463 144.84782 381 ft 4 kts 193°
2026-04-24 04:59 -37.67446 144.84795 382 ft 3 kts 261°
2026-04-24 04:59 -37.67449 144.84771 381 ft 4 kts 261°
2026-04-24 04:59 -37.67453 144.84738 381 ft 3 kts 261°
2026-04-24 05:00 -37.67457 144.84711 381 ft 4 kts 261°
2026-04-24 05:00 -37.67461 144.84678 381 ft 4 kts 261°
2026-04-24 05:00 -37.67462 144.84669 381 ft 1 kts 261°
2026-04-24 05:03 -37.67462 144.84668 381 ft 1 kts 261°
2026-04-24 05:03 -37.67465 144.84638 380 ft 7 kts 263°
2026-04-24 05:04 -37.67466 144.84570 379 ft 9 kts 251°
2026-04-24 05:04 -37.67547 144.84550 377 ft 15 kts 171°
2026-04-24 05:04 -37.67665 144.84573 373 ft 19 kts 172°
2026-04-24 05:04 -37.67815 144.84600 366 ft 24 kts 171°
2026-04-24 05:05 -37.67997 144.84636 358 ft 29 kts 172°
2026-04-24 05:05 -37.68209 144.84673 351 ft 33 kts 171°
2026-04-24 05:05 -37.68352 144.84671 353 ft 15 kts 228°
2026-04-24 05:05 -37.68388 144.84548 345 ft 17 kts 271°
2026-04-24 05:06 -37.68423 144.84407 350 ft 19 kts 221°
2026-04-24 05:06 -37.68524 144.84316 335 ft 11 kts 224°
2026-04-24 05:06 -37.68552 144.84244 341 ft 5 kts 261°
2026-04-24 05:06 -37.68553 144.84240 341 ft 0 kts 261°
2026-04-24 05:09 -37.68553 144.84233 341 ft 3 kts 261°
2026-04-24 05:10 -37.68554 144.84225 337 ft 5 kts 261°
2026-04-24 05:10 -37.68559 144.84147 345 ft 10 kts 268°
2026-04-24 05:10 -37.68528 144.84087 346 ft 8 kts 360°
2026-04-24 05:10 -37.68511 144.84087 352 ft 0 kts 352°
2026-04-24 05:11 -37.68433 144.84073 352 ft 39 kts 352°
2026-04-24 05:12 -37.67950 144.83983 357 ft 99 kts 352°
2026-04-24 05:12 -37.67124 144.83822 396 ft 138 kts 352°
2026-04-24 05:12 -37.66156 144.83635 889 ft 142 kts 352°
2026-04-24 05:12 -37.65179 144.83448 1521 ft 141 kts 351°
2026-04-24 05:13 -37.63155 144.83062 2460 ft 163 kts 352°
2026-04-24 05:13 -37.61949 144.82830 2729 ft 188 kts 352°
2026-04-24 05:13 -37.60571 144.82566 3052 ft 212 kts 352°
2026-04-24 05:14 -37.59016 144.82459 3533 ft 235 kts 11°
2026-04-24 05:14 -37.57476 144.83232 4258 ft 247 kts 22°
2026-04-24 05:14 -37.55900 144.84197 4824 ft 256 kts 23°
2026-04-24 05:14 -37.54283 144.85203 5352 ft 261 kts 23°
2026-04-24 05:15 -37.52647 144.86223 6274 ft 263 kts 23°
2026-04-24 05:15 -37.50995 144.87247 7124 ft 266 kts 23°
2026-04-24 05:15 -37.49310 144.88283 7878 ft 272 kts 24°
2026-04-24 05:15 -37.47642 144.89439 8654 ft 278 kts 37°
2026-04-24 05:16 -37.46440 144.91377 9423 ft 289 kts 64°
2026-04-24 05:16 -37.46045 144.93870 10207 ft 297 kts 91°
2026-04-24 05:16 -37.46593 144.96392 10893 ft 306 kts 118°
2026-04-24 05:16 -37.48038 144.98404 11364 ft 321 kts 147°
2026-04-24 05:17 -37.50176 144.99424 11547 ft 342 kts 171°
2026-04-24 05:17 -37.52586 144.99798 11935 ft 354 kts 176°
2026-04-24 05:17 -37.55056 145.00017 12626 ft 356 kts 178°
2026-04-24 05:17 -37.57544 145.00181 13304 ft 359 kts 178°
2026-04-24 05:18 -37.60045 145.00347 13997 ft 361 kts 178°
2026-04-24 05:18 -37.62565 145.00541 14627 ft 364 kts 176°
2026-04-24 05:18 -37.65095 145.00768 15229 ft 366 kts 177°
2026-04-24 05:18 -37.67611 145.01018 15784 ft 369 kts 176°
2026-04-24 05:19 -37.70177 145.01290 16380 ft 371 kts 175°
2026-04-24 05:19 -37.72759 145.01372 16951 ft 373 kts 185°
2026-04-24 05:19 -37.75344 145.01020 17531 ft 375 kts 187°
2026-04-24 05:19 -37.77941 145.00635 18114 ft 377 kts 188°
2026-04-24 05:20 -37.80551 145.00241 18688 ft 379 kts 188°
2026-04-24 05:20 -37.83188 144.99843 19174 ft 383 kts 188°
2026-04-24 05:20 -37.85844 144.99442 19676 ft 386 kts 188°
2026-04-24 05:20 -37.88517 144.99040 20170 ft 389 kts 187°
2026-04-24 05:21 -37.91212 144.98634 20666 ft 392 kts 188°
2026-04-24 05:21 -37.93932 144.98226 21146 ft 395 kts 187°
2026-04-24 05:21 -37.96687 144.98070 21592 ft 399 kts 178°
2026-04-24 05:21 -37.99454 144.98556 22041 ft 404 kts 168°
2026-04-24 05:22 -38.02147 144.99639 22486 ft 407 kts 161°
2026-04-24 05:22 -38.04829 145.00844 22908 ft 411 kts 162°
2026-04-24 05:22 -38.07537 145.02052 23339 ft 414 kts 161°
2026-04-24 05:22 -38.10228 145.03246 23764 ft 417 kts 162°
2026-04-24 05:23 -38.12978 145.04460 24157 ft 419 kts 161°
2026-04-24 05:23 -38.15742 145.05686 24497 ft 422 kts 162°
2026-04-24 05:23 -38.18524 145.06922 24875 ft 424 kts 163°
2026-04-24 05:23 -38.21322 145.08166 25235 ft 427 kts 162°
2026-04-24 05:24 -38.24129 145.09419 25610 ft 429 kts 162°
2026-04-24 05:24 -38.26956 145.10679 25961 ft 432 kts 163°
2026-04-24 05:24 -38.29793 145.11940 26349 ft 433 kts 163°
2026-04-24 05:24 -38.32645 145.13211 26702 ft 435 kts 162°
2026-04-24 05:25 -38.35511 145.14494 27061 ft 437 kts 163°
2026-04-24 05:25 -38.38386 145.15784 27415 ft 439 kts 162°
2026-04-24 05:25 -38.41278 145.17083 27769 ft 441 kts 162°
2026-04-24 05:25 -38.44180 145.18384 28127 ft 443 kts 162°
2026-04-24 05:26 -38.47098 145.19694 28487 ft 445 kts 162°
2026-04-24 05:26 -38.50025 145.21010 28840 ft 447 kts 162°
2026-04-24 05:26 -38.52970 145.22328 29193 ft 450 kts 162°
2026-04-24 05:26 -38.55900 145.23624 29534 ft 452 kts 163°
2026-04-24 05:27 -38.58883 145.24932 29874 ft 454 kts 163°
2026-04-24 05:27 -38.61880 145.26240 30209 ft 456 kts 163°
2026-04-24 05:27 -38.64894 145.27555 30561 ft 457 kts 163°
2026-04-24 05:27 -38.67900 145.28872 30969 ft 456 kts 163°
2026-04-24 05:28 -38.70904 145.30196 31368 ft 455 kts 163°
2026-04-24 05:28 -38.73896 145.31516 31772 ft 454 kts 163°
2026-04-24 05:28 -38.76880 145.32835 32179 ft 453 kts 163°
2026-04-24 05:28 -38.79858 145.34157 32587 ft 452 kts 163°
2026-04-24 05:29 -38.82828 145.35475 33005 ft 451 kts 163°
2026-04-24 05:29 -38.85793 145.36793 33430 ft 450 kts 163°
2026-04-24 05:29 -38.88748 145.38108 33849 ft 449 kts 163°
2026-04-24 05:29 -38.91662 145.39402 34238 ft 449 kts 163°
2026-04-24 05:30 -38.94611 145.40710 34597 ft 448 kts 163°
2026-04-24 05:30 -38.97555 145.42019 34929 ft 448 kts 163°
2026-04-24 05:30 -39.00496 145.43329 35253 ft 447 kts 163°
2026-04-24 05:30 -39.03436 145.44639 35371 ft 448 kts 163°
2026-04-24 05:31 -39.06391 145.45950 35395 ft 450 kts 163°
2026-04-24 05:31 -39.12313 145.48585 35396 ft 451 kts 163°
2026-04-24 05:32 -39.18238 145.51247 35396 ft 451 kts 163°
2026-04-24 05:32 -39.24165 145.53911 35397 ft 451 kts 163°
2026-04-24 05:33 -39.30087 145.56569 35392 ft 451 kts 163°
2026-04-24 05:33 -39.36018 145.59228 35397 ft 451 kts 163°
2026-04-24 05:34 -39.44880 145.63224 35403 ft 451 kts 163°
2026-04-24 05:34 -39.50812 145.65906 35406 ft 451 kts 163°
2026-04-24 05:35 -39.56742 145.68591 35414 ft 451 kts 163°
2026-04-24 05:35 -39.62676 145.71280 35411 ft 452 kts 163°
2026-04-24 05:36 -39.68615 145.73974 35413 ft 452 kts 163°
2026-04-24 05:36 -39.74551 145.76677 35414 ft 452 kts 163°
2026-04-24 05:37 -39.80442 145.79377 35415 ft 452 kts 163°
2026-04-24 05:37 -39.86377 145.82081 35406 ft 452 kts 163°
2026-04-24 05:38 -39.92317 145.84786 35409 ft 452 kts 163°
2026-04-24 05:38 -39.98255 145.87516 35413 ft 452 kts 163°
2026-04-24 05:39 -40.04196 145.90249 35406 ft 453 kts 163°
2026-04-24 05:39 -40.10140 145.93011 35403 ft 454 kts 163°
2026-04-24 05:40 -40.16095 145.95783 35404 ft 454 kts 163°
2026-04-24 05:40 -40.22057 145.98553 35406 ft 454 kts 163°
2026-04-24 05:41 -40.27981 146.01312 35407 ft 455 kts 163°
2026-04-24 05:41 -40.33953 146.04099 35404 ft 456 kts 163°
2026-04-24 05:42 -40.39937 146.06895 35405 ft 457 kts 163°
2026-04-24 05:42 -40.45918 146.09704 35417 ft 457 kts 163°
2026-04-24 05:43 -40.51922 146.12520 35406 ft 458 kts 163°
2026-04-24 05:43 -40.57918 146.15337 35405 ft 458 kts 163°
2026-04-24 05:44 -40.63882 146.18148 35406 ft 458 kts 162°
2026-04-24 05:44 -40.69893 146.20985 35412 ft 459 kts 163°
2026-04-24 05:45 -40.75909 146.23822 35411 ft 459 kts 163°
2026-04-24 05:45 -40.81928 146.26670 35384 ft 461 kts 162°
2026-04-24 05:46 -40.86959 146.29061 35369 ft 464 kts 162°
2026-04-24 05:46 -40.93057 146.31962 35384 ft 466 kts 162°
2026-04-24 05:47 -41.00172 146.35366 35378 ft 468 kts 162°
2026-04-24 05:47 -41.05276 146.37798 35379 ft 469 kts 162°
2026-04-24 05:48 -41.11434 146.40742 35383 ft 470 kts 162°
2026-04-24 05:48 -41.17573 146.43777 35396 ft 472 kts 157°
2026-04-24 05:49 -41.23515 146.47517 35397 ft 473 kts 156°
2026-04-24 05:49 -41.29468 146.51274 35390 ft 474 kts 156°
2026-04-24 05:50 -41.35427 146.55043 35391 ft 474 kts 156°
2026-04-24 05:50 -41.41389 146.58812 35406 ft 474 kts 156°
2026-04-24 05:51 -41.47366 146.62600 35150 ft 477 kts 156°
2026-04-24 05:51 -41.50367 146.64502 34907 ft 477 kts 156°
2026-04-24 05:51 -41.53324 146.66382 34670 ft 478 kts 156°
2026-04-24 05:52 -41.56331 146.68296 33822 ft 482 kts 156°
2026-04-24 05:52 -41.59380 146.70238 32839 ft 487 kts 156°
2026-04-24 05:52 -41.62453 146.72203 31873 ft 492 kts 156°
2026-04-24 05:52 -41.65540 146.74180 31069 ft 492 kts 157°
2026-04-24 05:53 -41.68648 146.76176 30063 ft 496 kts 157°
2026-04-24 05:53 -41.71755 146.78176 29083 ft 496 kts 157°
2026-04-24 05:53 -41.74867 146.80184 28012 ft 498 kts 156°
2026-04-24 05:53 -41.77965 146.82192 26749 ft 492 kts 156°
2026-04-24 05:54 -41.81003 146.84167 26006 ft 475 kts 156°
2026-04-24 05:54 -41.83921 146.86072 25311 ft 459 kts 156°
2026-04-24 05:54 -41.86748 146.87919 24620 ft 445 kts 157°
2026-04-24 05:54 -41.89498 146.89712 23956 ft 437 kts 157°
2026-04-24 05:55 -41.92292 146.91522 23209 ft 454 kts 157°
2026-04-24 05:55 -41.95156 146.93377 22530 ft 457 kts 156°
2026-04-24 05:55 -41.98011 146.95235 21835 ft 453 kts 156°
2026-04-24 05:55 -42.00831 146.97079 21151 ft 449 kts 156°
2026-04-24 05:56 -42.03592 146.98886 20492 ft 445 kts 156°
2026-04-24 05:56 -42.06363 147.00701 19847 ft 443 kts 156°
2026-04-24 05:56 -42.09123 147.02508 19212 ft 439 kts 156°
2026-04-24 05:56 -42.11859 147.04301 18611 ft 435 kts 156°
2026-04-24 05:57 -42.14569 147.06079 17969 ft 431 kts 156°
2026-04-24 05:57 -42.17163 147.08079 17404 ft 428 kts 147°
2026-04-24 05:57 -42.19469 147.10602 16823 ft 426 kts 139°
2026-04-24 05:57 -42.21644 147.13309 16259 ft 423 kts 139°
2026-04-24 05:58 -42.23804 147.15986 15666 ft 420 kts 139°
2026-04-24 05:58 -42.25947 147.18643 15074 ft 416 kts 139°
2026-04-24 05:58 -42.28069 147.21277 14466 ft 413 kts 139°
2026-04-24 05:58 -42.30154 147.23868 13821 ft 411 kts 139°
2026-04-24 05:59 -42.32368 147.26271 13182 ft 405 kts 148°
2026-04-24 05:59 -42.34783 147.28162 12645 ft 398 kts 153°
2026-04-24 05:59 -42.37192 147.29955 12103 ft 393 kts 153°
2026-04-24 05:59 -42.39581 147.31736 11561 ft 390 kts 152°
2026-04-24 06:00 -42.41939 147.33498 11097 ft 383 kts 152°
2026-04-24 06:00 -42.44225 147.35211 10984 ft 367 kts 152°
2026-04-24 06:00 -42.46414 147.36855 10823 ft 353 kts 152°
2026-04-24 06:00 -42.48544 147.38451 10478 ft 347 kts 152°
2026-04-24 06:01 -42.50639 147.40022 10223 ft 339 kts 151°
2026-04-24 06:01 -42.52656 147.41540 10087 ft 323 kts 152°
2026-04-24 06:01 -42.54569 147.42986 9720 ft 310 kts 152°
2026-04-24 06:01 -42.56445 147.44401 9308 ft 307 kts 152°
2026-04-24 06:02 -42.58308 147.45801 8977 ft 306 kts 152°
2026-04-24 06:02 -42.60055 147.47465 8590 ft 308 kts 141°
2026-04-24 06:02 -42.61691 147.49329 8319 ft 305 kts 141°
2026-04-24 06:02 -42.63296 147.51153 8004 ft 303 kts 141°
2026-04-24 06:03 -42.64906 147.52981 7666 ft 301 kts 140°
2026-04-24 06:03 -42.66509 147.54801 7343 ft 300 kts 141°
2026-04-24 06:03 -42.68110 147.56620 7039 ft 299 kts 141°
2026-04-24 06:03 -42.69704 147.58432 6739 ft 298 kts 140°
2026-04-24 06:04 -42.71283 147.60236 6428 ft 295 kts 141°
2026-04-24 06:04 -42.72852 147.62027 6131 ft 293 kts 140°
2026-04-24 06:04 -42.74408 147.63803 5841 ft 292 kts 141°
2026-04-24 06:04 -42.75958 147.65572 5551 ft 290 kts 141°
2026-04-24 06:05 -42.77498 147.67335 5276 ft 288 kts 141°
2026-04-24 06:05 -42.79012 147.69070 5136 ft 281 kts 141°
2026-04-24 06:05 -42.80491 147.70766 5010 ft 274 kts 141°
2026-04-24 06:05 -42.81927 147.72415 4858 ft 266 kts 141°
2026-04-24 06:06 -42.83332 147.74025 4563 ft 263 kts 141°
2026-04-24 06:06 -42.84784 147.75486 4138 ft 257 kts 157°
2026-04-24 06:06 -42.86431 147.76104 3983 ft 235 kts 180°
2026-04-24 06:06 -42.87961 147.75912 3956 ft 209 kts 200°
2026-04-24 06:07 -42.89261 147.75178 3656 ft 199 kts 212°
2026-04-24 06:07 -42.90478 147.74355 3412 ft 191 kts 211°
2026-04-24 06:07 -42.91611 147.73547 3210 ft 183 kts 219°
2026-04-24 06:07 -42.92444 147.72318 3007 ft 174 kts 244°
2026-04-24 06:08 -42.92803 147.70775 2939 ft 171 kts 267°
2026-04-24 06:08 -42.92815 147.69146 2836 ft 172 kts 271°
2026-04-24 06:08 -42.92813 147.67520 2673 ft 171 kts 272°
2026-04-24 06:08 -42.92813 147.65899 2500 ft 171 kts 272°
2026-04-24 06:09 -42.92769 147.64301 2339 ft 163 kts 284°
2026-04-24 06:09 -42.92299 147.62993 2178 ft 147 kts 311°
2026-04-24 06:09 -42.91596 147.62031 1981 ft 141 kts 315°
2026-04-24 06:09 -42.90905 147.61092 1784 ft 140 kts 315°
2026-04-24 06:10 -42.90220 147.60162 1604 ft 137 kts 315°
2026-04-24 06:10 -42.89551 147.59251 1419 ft 136 kts 315°
2026-04-24 06:10 -42.88879 147.58336 1222 ft 136 kts 315°
2026-04-24 06:11 -42.87534 147.56506 856 ft 137 kts 318°
2026-04-24 06:11 -42.86864 147.55601 705 ft 136 kts 318°
2026-04-24 06:11 -42.86198 147.54674 514 ft 139 kts 317°
2026-04-24 06:11 -42.85520 147.53737 343 ft 138 kts 319°
2026-04-24 06:12 -42.84835 147.52826 150 ft 138 kts 319°
2026-04-24 06:12 -42.84165 147.51929 24 ft 125 kts 317°
2026-04-24 06:12 -42.83668 147.51250 22 ft 77 kts 315°
2026-04-24 06:12 -42.83396 147.50880 24 ft 33 kts 315°
2026-04-24 06:13 -42.83311 147.50691 22 ft 21 kts 265°
2026-04-24 06:13 -42.83381 147.50564 23 ft 17 kts 209°
2026-04-24 06:13 -42.83481 147.50627 23 ft 18 kts 135°
2026-04-24 06:13 -42.83574 147.50754 22 ft 20 kts 134°
2026-04-24 06:14 -42.83648 147.50845 24 ft 11 kts 158°
2026-04-24 06:14 -42.83703 147.50783 22 ft 12 kts 240°
2026-04-24 06:14 -42.83733 147.50724 22 ft 5 kts 235°
2026-04-24 06:14 -42.83743 147.50702 22 ft 2 kts 236°
2026-04-24 06:15 -42.83745 147.50699 22 ft 0 kts 236°